FW2491 Weather Reports


time (UTC)temp
C
wind
direction
speed
KPH
gust
KPH
rain 1hr
cm
rain 24hr
cm
rain mn
cm
humidity
%
barometer
mb
20260505193036 23 194 4.8 19.3 0.00 0.00 0.00 32 1014.1
20260505191534 23 222 11.3 27.4 0.00 0.00 0.00 30 1014.4
20260505190032 23 145 6.4 22.5 0.00 0.00 0.00 35 1014.8
20260505184531 22 128 8.0 29.0 0.00 0.00 0.00 32 1015.1
20260505183042 23 175 9.7 24.1 0.00 0.00 0.00 32 1015.2
20260505181528 23 178 9.7 19.3 0.00 0.00 0.00 31 1015.2
20260505180026 22 218 9.7 19.3 0.00 0.00 0.00 30 1015.1
20260505174523 22 198 9.7 22.5 0.00 0.00 0.00 31 1015.3
20260505173023 22 215 6.4 20.9 0.00 0.00 0.00 29 1015.8
20260505171520 21 215 8.0 27.4 0.00 0.00 0.00 31 1015.9
20260505170020 21 261 8.0 20.9 0.00 0.00 0.00 36 1016.1
20260505164519 21 244 9.7 16.1 0.00 0.00 0.00 35 1016.0
20260505163016 21 228 9.7 25.7 0.00 0.00 0.00 34 1015.9
20260505161515 21 232 8.0 16.1 0.00 0.00 0.00 35 1015.8
20260505153007 20 189 4.8 16.1 0.00 0.00 0.00 44 1016.4
20260505151509 20 187 6.4 12.9 0.00 0.00 0.00 43 1016.5
20260505124544 14 104 0.0 3.2 0.00 0.00 0.00 55 1015.7
20260505123038 12 104 1.6 4.8 0.00 0.00 0.00 57 1015.6
20260505121541 11 104 1.6 4.8 0.00 0.00 0.00 62 1015.7
20260505120046 9 113 1.6 4.8 0.00 0.00 0.00 63 1015.3
20260505114535 9 126 3.2 6.4 0.00 0.00 0.00 61 1015.4
20260505113035 10 126 3.2 4.8 0.00 0.00 0.00 59 1015.3
20260505111533 10 126 1.6 4.8 0.00 0.00 0.00 56 1014.9
20260505101538 9 313 3.2 6.4 0.00 0.00 0.00 60 1015.0
20260505100029 9 312 4.8 8.0 0.00 0.00 0.00 60 1014.8
20260505094530 9 315 6.4 8.0 0.00 0.00 0.00 60 1014.8
20260505093028 9 315 4.8 8.0 0.00 0.00 0.00 60 1014.9
20260505091526 10 311 4.8 6.4 0.00 0.00 0.00 60 1014.9
20260505090025 10 308 3.2 8.0 0.00 0.00 0.00 60 1014.8
20260505084534 10 312 6.4 9.7 0.00 0.00 0.00 60 1014.8
20260505083020 10 304 8.0 11.3 0.00 0.00 0.00 59 1014.8
20260505081518 11 299 8.0 12.9 0.00 0.00 0.00 57 1014.8
20260505080012 12 281 6.4 14.5 0.00 0.00 0.00 52 1014.8
20260505074510 12 280 4.8 11.3 0.00 0.00 0.00 50 1014.7
20260505073009 13 290 4.8 6.4 0.00 0.00 0.00 48 1014.8
20260505071507 13 289 4.8 8.0 0.00 0.00 0.00 47 1014.8
20260505070007 13 242 3.2 6.4 0.00 0.00 0.00 47 1014.9
20260505064506 13 241 3.2 6.4 0.00 0.00 0.00 48 1014.9
20260505063008 13 240 6.4 14.5 0.00 0.00 0.00 49 1015.0
20260505061502 12 272 6.4 11.3 0.00 0.00 0.00 53 1015.2
20260505060100 13 252 4.8 11.3 0.00 0.00 0.00 53 1015.2
20260505054609 13 315 4.8 8.0 0.00 0.00 0.00 52 1015.2
20260505053100 13 229 3.2 4.8 0.00 0.00 0.00 51 1015.2
20260505051553 13 229 1.6 6.4 0.00 0.00 0.00 50 1015.3
20260505041553 15 246 0.0 3.2 0.00 0.00 0.00 47 1015.3
20260505040050 15 249 1.6 3.2 0.00 0.00 0.00 46 1015.5
20260505034540 15 248 0.0 1.6 0.00 0.00 0.00 46 1015.6
20260505033040 15 248 0.0 0.0 0.00 0.00 0.00 46 1015.7
20260505031544 15 248 1.6 4.8 0.00 0.00 0.00 45 1015.7
20260505030040 15 249 0.0 3.2 0.00 0.00 0.00 46 1015.6
20260505024552 16 249 0.0 4.8 0.00 0.00 0.00 46 1015.7
20260505023039 16 249 1.6 8.0 0.00 0.00 0.00 44 1015.6
20260505021539 17 193 3.2 11.3 0.00 0.00 0.00 42 1015.4
20260505020037 17 207 3.2 11.3 0.00 0.00 0.00 42 1015.3
20260505014637 17 169 3.2 9.7 0.00 0.00 0.00 40 1015.2
20260505013035 17 205 3.2 9.7 0.00 0.00 0.00 40 1015.1
20260505011535 18 190 3.2 6.4 0.00 0.00 0.00 40 1014.9
20260505010034 18 197 3.2 11.3 0.00 0.00 0.00 40 1014.8
20260505004539 18 183 4.8 11.3 0.00 0.00 0.00 38 1014.7
20260505003032 19 190 1.6 9.7 0.00 0.00 0.00 38 1014.6
20260505001532 20 180 3.2 8.0 0.00 0.00 0.00 36 1014.5
20260505000131 20 172 3.2 8.0 0.00 0.00 0.00 36 1014.5
20260504234535 21 187 1.6 6.4 0.00 0.00 0.00 36 1014.5
20260504233038 21 184 3.2 8.0 0.00 0.00 0.00 35 1014.4
20260504231530 21 196 1.6 6.4 0.00 0.00 0.00 33 1014.4
20260504230028 21 191 3.2 11.3 0.00 0.00 0.00 32 1014.2
20260504224527 21 213 4.8 14.5 0.00 0.00 0.00 30 1014.2
20260504223037 22 196 4.8 12.9 0.00 0.00 0.00 32 1014.1
20260504221528 22 195 3.2 16.1 0.00 0.00 0.00 32 1014.2
20260504220025 22 195 3.2 14.5 0.00 0.00 0.00 30 1014.3
20260504214526 22 201 3.2 9.7 0.00 0.00 0.00 33 1014.4
20260504213036 22 175 3.2 16.1 0.00 0.00 0.00 34 1014.4
20260504211528 22 196 8.0 16.1 0.00 0.00 0.00 32 1014.4
20260504210020 22 204 6.4 16.1 0.00 0.00 0.00 34 1014.4
20260504204534 22 229 6.4 17.7 0.00 0.00 0.00 34 1014.3
20260504203023 22 174 4.8 17.7 0.00 0.00 0.00 33 1014.4
20260504201519 22 187 4.8 17.7 0.00 0.00 0.00 32 1014.5
20260504200017 23 198 6.4 14.5 0.00 0.00 0.00 32 1014.5
20260504194514 23 221 8.0 16.1 0.00 0.00 0.00 32 1014.6